102  
ASUS46 KSGX 290210  
RWRSGX  
 
SAN DIEGO HOURLY WEATHER ROUNDUP  
NATIONAL WEATHER SERVICE SAN DIEGO CA  
600 PM PST WED FEB 28 2024  
 
NOTE: "FAIR" INDICATES FEW OR NO CLOUDS BELOW 12,000 FEET WITH NO  
SIGNIFICANT WEATHER AND/OR S TO VISIBILITY
.  
 
CAZ042-043-060-061-PZZ750-775-290300-  
 
GREATER SAN DIEGO AREA  
 
CITY SKY/WX TMP DP RH WIND PRES REMARKS
 
SAN DIEGO AP MOCLDY 61 54 77 W6 30.06R  
BROWN FIELD MOCLDY 57 52 83 W6 30.04R  
MIRAMAR MCAS MOCLDY 54 53 97 MISG 30.04R  
MONTGOMERY FLD MOCLDY 59 55 87 W7 30.04R  
GILLESPIE FLD CLEAR 59 54 82 W8 30.05R  
LEMON GROVE N/A 59 54 83 W1 30.03R  
 

 
 
NORTH SAN DIEGO COUNTY  
 
CITY SKY/WX TMP DP RH WIND PRES REMARKS
 
CAMP PENDLETON MOCLDY 61 54 77 VRB5 30.04R  
OCEANSIDE AP CLOUDY 60 55 83 W5 30.03R  
OCEANSIDE HBR N/A 59 56 89 SW7 30.10R  
VISTA N/A 60 55 83 W1 30.02R  
CARLSBAD CLOUDY 59 53 80 W6 30.03R  
ENCINITAS N/A 58 55 89 CALM N/A  
LA JOLLA SCRIP N/A 59 50 73 CALM 30.04R  
FALLBROOK CLOUDY 55 54 94 SW6 30.05R  
ESCONDIDO N/A 60 53 78 CALM 30.04R  
SAN MARCOS N/A 59 54 83 CALM 30.02R  
RANCHO BERNARD N/A 58 53 83 CALM 30.03R  
POWAY N/A 59 53 81 W2 30.07R  
 

 
 
EAST SAN DIEGO COUNTY  
 
CITY SKY/WX TMP DP RH WIND PRES REMARKS
 
RAMONA CLEAR 54 50 86 W3 30.04R  
SANTEE N/A 59 54 82 CALM 30.01R  
LA MESA N/A 58 53 81 CALM 29.99R  
EL CAJON N/A 60 54 79 E3 29.92R  
ALPINE N/A 58 52 81 CALM 30.22R  
DESCANSO N N/A 53 49 86 SW1 30.08R  
 

 
 
ORANGE COUNTY AND THE LOS ANGELES BASIN  
 
CITY SKY/WX TMP DP RH WIND PRES REMARKS
 
JOHN WAYNE AP PTCLDY 63 53 70 SW5 30.02R  
LAGUNA BEACH N/A 61 57 86 NE2 30.02R  
LAKE FOREST FR N/A 59 50 74 CALM 29.91R  
SANTA ANA N/A 62 55 76 CALM 30.00R  
HUNTINGTON BCH N/A 61 57 87 W3 30.01R  
LOS ALAMITOS PTCLDY 61 52 71 NW7 29.98R  
FULLERTON CLEAR 63 50 62 W6 30.01R  
L.A. AP PTCLDY 58 55 90 SW10 30.02R  
L.A. DOWNTOWN CLEAR 63 52 67 VRB3 30.02R  
 

 
 
THE INLAND EMPIRE  
 
CITY SKY/WX TMP DP RH WIND PRES REMARKS
 
CORONA CLEAR 63 53 70 W9 30.01R  
UPLAND AP FAIR 63 48 59 SW10 30.01R  
ONTARIO PTCLDY 64 47 53 W12 30.00R  
SAN BERNARDINO CLEAR 64 48 55 SW7 30.01R  
RIVERSIDE AP CLEAR 62 52 69 W9 30.00R  
MORENO VALLEY N/A 63 56 77 CALM 28.25R  
MARCH ARB CLEAR 60 50 69 NW7 30.01R  
HORSETHIEF CYN N/A 62 47 58 W5 29.98R  
LAKE ELSINORE N/A 64 48 56 CALM 29.94R  
HEMET AP FAIR 58 53 86 W10 30.02R  
FRENCH VALLEY CLEAR 59 54 82 S8 30.03R  
TEMECULA N/A 61 54 79 SW9 29.97R  
 

 
 
SAN BERNARDINO AND RIVERSIDE COUNTY MOUNTAINS  
 
CITY SKY/WX TMP DP RH WIND PRES REMARKS
 
BIG BEAR AP CLEAR 41 32 70 CALM 30.13R  
BIG BEAR LAKE N/A 42 34 74 CALM 30.09R  
WRIGHTWOOD N/A 40 32 74 CALM 29.95S  
ANGELUS OAKS N/A 44 36 73 CALM 30.00R  
IDYLLWILD N/A 49 38 65 N2 29.98R  
 

 
 
SOUTHERN DESERT INCLUDING THE COACHELLA VALLEY  
 
CITY SKY/WX TMP DP RH WIND PRES REMARKS
 
PALM SPRINGS CLEAR 76 37 24 NW7 29.93S  
THOUSAND PALMS N/A 75 40 27 W8 29.86S  
INDIO N/A 78 31 18 W3 29.90R  
THERMAL CLEAR 70 36 28 E7 29.90R  
BORREGO AP CLEAR 72 39 30 W10 29.93R  
OCOTILLO WELLS N/A 75 31 20 CALM 29.88R  
CANEBRAKE N/A 70 44 38 W5 29.90R  
BLYTHE CLEAR 70 26 19 N6 29.93R  
EL CENTRO NAS PTCLDY 72 27 18 W6 29.93R  
YUMA AZ PTCLDY 73 41 31 MISG 29.93R  
 

 
 
UPPER DESERT  
 
CITY SKY/WX TMP DP RH WIND PRES REMARKS
 
VICTORVILLE AP CLEAR 63 30 29 CALM 30.05R  
HESPERIA N/A 59 39 47 S7 29.85R  
APPLE VALLEY N/A 63 36 36 CALM 30.04R  
PALMDALE CLEAR 62 43 49 SW17 30.01S  
LANCASTER CLEAR 61 35 37 W13 30.01R  
EDWARDS AFB CLEAR 63 37 38 SW9 29.98R  
GRAY BUTTE AP CLEAR 59 35 41 W6 30.00R  
DAGGETT CLEAR 67 29 24 CALM 29.99S  
29 PALMS N CLEAR 65 28 24 W5 30.05R  
29 PALMS JTNP N/A 65 24 20 CALM 29.92R  
NEEDLES CLEAR 67 20 16 NW7 29.96S  
 

 
 
REGIONAL REPORTS  
 
CITY SKY/WX TMP DP RH WIND PRES REMARKS
 
SANTA BARBARA CLEAR 60 55 83 W7 30.02R  
SANDBERG CLEAR 52 34 50 S10 30.08R  
LAS VEGAS NV CLEAR 62 12 14 CALM 30.00S  
PHOENIX AZ MOCLDY 63 45 51 S17G28 29.92R  
TIJUANA MOCLDY 57 54 88 W8 30.07R  
ENSENADA NW N/A 58 32 36 NW7 29.83R  
 

 
 
OFFSHORE ISLANDS  
 
CITY SKY/WX TMP DP RH WIND PRES REMARKS
 
CATALINA ARPT PTCLDY 52 50 93 SW5 30.04S FOG  
SAN CLEMENTE I MOCLDY 58 53 84 W10 30.05S  
SAN NICOLAS IS PTCLDY 53 50 89 W10 30.03S  
 

 
 
MARINE AND OFFSHORE BUOY REPORTS  
 
STATION/POSITION SKY/WX TEMP WIND PRES VSBY SWELL
 
AIR SEA DIR/SP/G HT/PER/DIR  
(F) (DEG/KT/KT) (MB) (MI) (FT/S/D)  
TANNER BANKS 59 60 300/ 12/ 16 1017.4R 7/300/12  
S CLEMENTE BASIN 60 60 290/ 12/ 16 1016.1R 3/230/14  
SAN NICOLAS IS. 60 N/A 5/220/14  
SO. S. ROSA ISLA 58 58 310/ 12/ 16 1016.1R 7/300/13  
W. S. BARBARA CH 58 58 310/ 14/ 16 1016.2R 7/310/11  
M. S. BARBARA CH 59 59 270/ 10/ 12 1015.5F 3/280/13  
S. MONICA BASIN 59 61 270/ 10/ 12 1017.1R 2/180/14  
S PEDRO CHANNEL 61 N/A 2/180/14  
OCEANSIDE OFFSHR 61 N/A 2/190/14  
TORREY PINES OTR 61 N/A 3/210/14  
SAN DIEGO BAY 63 1017.3  
IMPERIAL BEACH 60 N/A 2/260/14  
POINT LOMA SOUTH N/A 2/200/13  
 

 
 
 
 
CLICK HERE TO GO TO PREVIOUS BULLETINS.

The Nexlab CA Page Main Text Page